CW6747 Weather Reports


Display with metric or nautical units.
time (UTC)temp
F
wind
direction
speed
MPH
gust
MPH
rain 1hr
in
rain 24hr
in
rain mn
in
humidity
%
barometer
mb
20260507114530 42 58 2.0 5.0 0.00 0.14 0.00 69 1012.1
20260507113029 41 36 1.0 4.0 0.00 0.14 0.00 72 1012.0
20260507111530 39 0 0.0 1.0 0.00 0.14 0.00 74 1011.8
20260507110027 38 0 0.0 2.0 0.00 0.14 0.00 76 1011.7
20260507104530 38 300 0.0 2.0 0.00 0.16 0.00 76 1011.6
20260507103029 38 0 0.0 0.0 0.00 0.16 0.00 76 1011.6
20260507101530 39 0 0.0 0.0 0.00 0.16 0.00 75 1011.5
20260507100035 39 0 0.0 0.0 0.00 0.16 0.00 74 1011.5
20260507094526 40 0 0.0 0.0 0.00 0.16 0.00 74 1011.4
20260507093028 40 0 0.0 1.0 0.00 0.16 0.00 72 1011.2
20260507091534 41 0 0.0 2.0 0.00 0.16 0.00 71 1011.4
20260507090027 42 0 0.0 0.0 0.00 0.16 0.00 69 1011.3
20260507084531 43 0 0.0 1.0 0.00 0.16 0.00 68 1011.3
20260507083030 44 52 0.0 2.0 0.00 0.16 0.00 65 1011.4
20260507081529 44 57 1.0 3.0 0.00 0.16 0.00 63 1011.4
20260507080029 45 71 1.0 6.0 0.00 0.16 0.00 64 1011.4
20260507074530 45 73 1.0 4.0 0.00 0.16 0.00 64 1011.4
20260507073032 45 71 1.0 3.0 0.00 0.16 0.00 64 1011.5
20260507071533 45 42 0.0 2.0 0.00 0.16 0.00 66 1011.3
20260507070034 45 70 1.0 4.0 0.00 0.16 0.00 65 1011.4
20260507064544 45 0 1.0 2.0 0.00 0.16 0.00 65 1011.5
20260507063034 46 0 0.0 4.0 0.00 0.16 0.00 63 1011.4
20260507061531 46 56 2.0 5.0 0.00 0.16 0.00 61 1011.6
20260507060028 46 69 0.0 5.0 0.00 0.16 0.00 61 1011.8
20260507054530 47 34 3.0 8.0 0.00 0.16 0.00 60 1011.7
20260507053028 47 64 3.0 9.0 0.00 0.16 0.00 61 1011.6
20260507051528 47 53 2.0 5.0 0.00 0.16 0.00 68 1011.7
20260507050039 47 0 1.0 3.0 0.00 0.16 0.00 64 1011.7
20260507044532 47 0 0.0 0.0 0.00 0.16 0.00 63 1011.7
20260507043030 48 0 0.0 5.0 0.00 0.16 0.00 58 1011.9
20260507041530 48 105 1.0 7.0 0.00 0.16 0.00 56 1011.7
20260507040029 48 138 0.0 6.0 0.00 0.16 0.00 58 1011.6
20260507034529 48 67 2.0 5.0 0.00 0.16 0.16 58 1011.6
20260507033030 49 65 1.0 11.0 0.00 0.16 0.16 56 1011.6
20260507031533 49 86 3.0 13.0 0.00 0.16 0.16 54 1011.5
20260507030030 49 109 2.0 12.0 0.00 0.16 0.16 63 1011.2
20260507024528 49 113 5.0 14.0 0.00 0.16 0.16 77 1011.1
20260507023030 49 0 0.0 1.0 0.00 0.16 0.16 79 1010.8
20260507021527 49 0 0.0 4.0 0.00 0.16 0.16 79 1010.8
20260507020029 50 105 1.0 3.0 0.00 0.16 0.16 78 1010.9
20260507014527 50 82 0.0 4.0 0.00 0.16 0.16 78 1011.3
20260507013027 51 57 1.0 4.0 0.00 0.16 0.16 78 1011.2
20260507011531 51 59 1.0 6.0 0.00 0.16 0.16 78 1011.3
20260507010038 51 50 2.0 5.0 0.00 0.16 0.16 78 1011.2
20260507004529 51 57 2.0 8.0 0.00 0.16 0.16 78 1011.2
20260507003028 51 35 2.0 5.0 0.00 0.16 0.16 79 1010.7
20260507001526 52 58 3.0 13.0 0.00 0.16 0.16 78 1010.3
20260507000028 52 69 3.0 11.0 0.00 0.16 0.16 78 1010.0
20260506234531 52 78 7.0 12.0 0.00 0.16 0.16 79 1009.7
20260506233028 52 76 3.0 8.0 0.00 0.16 0.16 79 1009.4
20260506231529 52 19 3.0 13.0 0.00 0.16 0.16 80 1009.3
20260506230030 53 79 4.0 13.0 0.00 0.16 0.16 79 1009.5
20260506224532 53 79 6.0 12.0 0.00 0.16 0.16 79 1009.4
20260506223030 54 88 6.0 12.0 0.00 0.16 0.16 78 1009.0
20260506221530 55 94 4.0 11.0 0.00 0.16 0.16 79 1008.8
20260506220035 55 77 6.0 16.0 0.00 0.16 0.16 78 1008.8
20260506214527 56 93 7.0 17.0 0.00 0.16 0.16 78 1008.6
20260506213028 57 65 8.0 18.0 0.00 0.16 0.16 78 1008.3
20260506211533 57 53 6.0 17.0 0.00 0.16 0.16 79 1008.1
20260506210033 57 62 8.0 17.0 0.00 0.16 0.16 80 1007.6
20260506204535 58 37 10.0 17.0 0.00 0.19 0.16 79 1007.4
20260506203031 58 48 5.0 12.0 0.00 0.19 0.16 82 1007.3
20260506201537 58 50 10.0 16.0 0.00 0.19 0.16 80 1007.3
20260506200030 58 51 8.0 15.0 0.00 0.19 0.16 82 1007.0
20260506194528 59 55 10.0 15.0 0.00 0.19 0.16 81 1006.8
20260506193028 60 53 9.0 16.0 0.00 0.19 0.16 82 1006.6
20260506191527 61 51 11.0 16.0 0.00 0.19 0.16 81 1006.5
20260506190031 60 37 5.0 10.0 0.00 0.19 0.16 84 1006.5
20260506184531 59 57 4.0 11.0 0.00 0.19 0.16 87 1006.3
20260506183027 58 10 7.0 12.0 0.00 0.19 0.16 88 1006.5
20260506181530 58 52 7.0 15.0 0.00 0.19 0.16 89 1006.6
20260506180032 59 44 7.0 14.0 0.00 0.19 0.16 89 1006.4
20260506174532 59 57 4.0 10.0 0.00 0.19 0.16 89 1006.4
20260506173030 58 355 5.0 11.0 0.00 0.19 0.16 89 1006.2
20260506171539 59 348 4.0 18.0 0.00 0.19 0.16 87 1006.2
20260506170027 60 306 4.0 13.0 0.00 0.19 0.16 86 1006.1
20260506164528 60 5 2.0 14.0 0.00 0.19 0.16 89 1006.1
20260506163034 59 355 7.0 15.0 0.00 0.19 0.16 87 1006.1
20260506161532 59 9 9.0 15.0 0.00 0.19 0.16 88 1006.2
20260506160031 58 360 7.0 14.0 0.01 0.19 0.16 89 1006.2
20260506154533 57 355 6.0 16.0 0.01 0.19 0.16 89 1006.2
20260506153027 57 5 8.0 16.0 0.01 0.19 0.16 88 1006.1
20260506151530 57 17 9.0 18.0 0.02 0.19 0.16 87 1005.8
20260506150028 58 321 8.0 15.0 0.01 0.18 0.15 87 1005.7
20260506144527 58 333 6.0 16.0 0.02 0.18 0.15 87 1005.6
20260506143028 57 5 9.0 22.0 0.03 0.18 0.15 87 1005.7
20260506141528 57 344 8.0 21.0 0.02 0.17 0.14 88 1005.6
20260506140034 57 325 5.0 19.0 0.03 0.17 0.14 88 1005.5
20260506134529 57 15 6.0 16.0 0.03 0.16 0.13 86 1005.7
20260506133031 57 341 8.0 17.0 0.03 0.15 0.12 86 1005.7
20260506131530 56 46 4.0 13.0 0.05 0.15 0.12 87 1005.8
20260506130030 56 348 4.0 12.0 0.05 0.14 0.11 86 1005.8
20260506124532 56 322 4.0 12.0 0.05 0.13 0.10 87 1005.8
20260506123030 56 360 2.0 8.0 0.06 0.12 0.09 87 1005.8
20260506121529 56 0 2.0 10.0 0.05 0.10 0.07 85 1005.9
20260506120030 56 310 2.0 10.0 0.04 0.09 0.06 84 1006.2